Home > Time Zones > World Clock > Weather > Japan > Tokyo > Past weeks

Flag for Japan Weather past 2 weeks in Tokyo, Japan

Now
42 °F

Overcast.


Feels Like: 39 °F
Forecast: 39 / 48 °F
Wind: 5 mph from North

Location: Tokyo

Current Time: Mar 6, 2015 at 5:30:40 AM

Latest Report: Mar 6, 2015 at 3:00 AM


Visibility: 13 mi

Pressure: 30.20 "Hg

Humidity: 46%

Dew point: 23 °F

Location of TokyoLocation

Historic Weather in Tokyo — Graph

°F

Tokyo temperature yesterday

Maximum temperature yesterday: 56 °F (at 1:00 PM)
Minimum temperature yesterday: 42 °F (at 6:00 AM)
Average temperature yesterday: 49 °F

Past Weeks' High & Low Weather Summary

 TemperatureHumidityPressure
High65 °F (Feb 23, 3:00 PM)97% (Feb 23, 1:00 AM)30.40 "Hg (Feb 23, 1:00 AM)
Low35 °F (Feb 19, 7:00 AM)18% (Feb 28, 3:00 PM)29.47 "Hg (Mar 1, 9:00 PM)
Average46 °F63%30.01 "Hg
* Reported Feb 19 3:00 AM — Mar 6 3:00 AM, Tokyo, Weather by CustomWeather, © 2015

Note: Actual official high and low records may vary slightly from our data, if they occured in-between our weather recording intervals... More about our weather records

Advertising

Tokyo weather history for previous 24 hours

 ConditionsComfort  
Time TempWeatherWind HumidityBarometerVisibility
3:00 AM
Fri, Mar 6
42 °FOvercast.5 mph46%30.20 "Hg12 mi
2:00 AM43 °FQuite cool.3 mph41%30.20 "HgN/A
1:00 AM44 °FQuite cool.5 mph41%30.19 "HgN/A
12:00 AM45 °FQuite cool.5 mph40%30.17 "HgN/A
11:00 PM
Thu, Mar 5
45 °FCool.8 mph36%30.17 "HgN/A
10:00 PM47 °FCool.9 mph31%30.16 "HgN/A
9:00 PM47 °FOvercast.9 mph35%30.14 "Hg12 mi
8:00 PM48 °FCool.9 mph30%30.12 "HgN/A
7:00 PM49 °FCool.6 mph24%30.09 "HgN/A
6:00 PM50 °FPassing clouds.7 mph24%30.06 "Hg12 mi
5:00 PM51 °FCool.9 mph26%30.02 "HgN/A
4:00 PM54 °FCool.10 mph23%30.00 "HgN/A
3:00 PM55 °FPartly sunny.9 mph23%29.98 "Hg19 mi
2:00 PM56 °FRefreshingly cool.8 mph24%29.96 "HgN/A
1:00 PM56 °FRefreshingly cool.8 mph23%29.97 "HgN/A
11:00 AM53 °FCool.15 mph28%29.99 "HgN/A
10:00 AM50 °FCool.15 mph29%29.99 "HgN/A
9:00 AM48 °FPassing clouds.12 mph31%29.98 "Hg25 mi
8:00 AM47 °FCool.12 mph34%29.97 "HgN/A
7:00 AM43 °FQuite cool.9 mph39%29.93 "HgN/A
6:00 AM42 °FOvercast.8 mph44%29.91 "Hg9 mi
5:00 AM43 °FQuite cool.7 mph46%29.88 "HgN/A
Weather by CustomWeather, © 2015

See weather overviewHow to use our weather pages